[[{"header":{"parameterUnit":"m.s-1","parameterCategory":1,"la1":30.2992,"la2":30.254,"lo1":-89.0895,"lo2":-89.0443,"dy":0.0025,"dx":0.0025,"nx":19,"ny":19,"refTime":"2026-03-26T09:00:00:Z","depth":0,"parameterNumber":2,"parameterNumberName":"U-component_of_WINDS"},"data":[0,0,0,0.2213,0.2213,0.2242,0.2242,0.2275,0.2275,0,0,0,0,0,0,0,0,0,0,0,0.2203,0.2203,0.2213,0.2213,0.2242,0.2242,0.2275,0.2275,0,0,0,0,0,0,0,0,0,0,0,0.2203,0.2203,0.2204,0.2214,0.2242,0.2242,0.2275,0.2254,0,0,0,0,0,0,0,0,0,0,0.2227,0.2218,0.2203,0.2204,0.2214,0.2242,0.2242,0.2254,0.2256,0.2261,0,0.2266,0,0.2271,0.2277,0.2278,0,0,0,0.2214,0.2216,0.2225,0.2204,0.2214,0.2242,0.2229,0.2255,0.2257,0.2264,0.2267,0.2268,0.2272,0.2278,0.2278,0.2307,0.2307,0,0,0.2213,0.2208,0.2223,0.2226,0.2223,0.2228,0.223,0.2256,0.2259,0.2267,0.2269,0.2272,0.2278,0.2278,0.2307,0.2307,0,0,0,0.2208,0.2207,0.2215,0.2225,0.223,0.2229,0.2231,0.2258,0.2261,0.2269,0.2273,0.2278,0.2278,0.2307,0.2307,0.2308,0,0,0,0.2207,0.2204,0.2214,0.2211,0.223,0.2244,0.2232,0.2259,0.2262,0.2273,0.2278,0.2279,0.2307,0.2307,0.2307,0.2309,0,0,0,0.2202,0.2203,0.2207,0.2211,0.2223,0.2244,0.2249,0.226,0.2264,0.2278,0.2279,0.2307,0.2307,0.2307,0.2308,0.2315,0,0,0,0.2195,0.2207,0.2207,0.2222,0.2223,0.2244,0.2249,0.2265,0.2277,0.2278,0.2307,0.2307,0.2307,0.2308,0.2314,0.2319,0.232,0,0,0.2208,0.2209,0.2218,0.2218,0.2239,0.2241,0.2261,0.2276,0.2281,0.2298,0.2299,0.2307,0.2308,0.2314,0.2331,0.2332,0,0,0,0.222,0.2226,0.2233,0.2244,0.2256,0.2265,0.2278,0.2283,0.2298,0.2289,0.2312,0.2312,0.2316,0.2318,0.232,0.2323,0.2308,0.2308,0.2308,0.2231,0.2237,0.2252,0.2262,0.2272,0.2284,0.2293,0.2302,0.2306,0.2311,0.2316,0.2325,0.2328,0.2329,0.2332,0.2319,0.2319,0.2319,0.2319,0.225,0.2259,0.2263,0.2279,0.2285,0.2298,0.231,0.2312,0.2324,0.2322,0.2326,0.2323,0.233,0.2333,0.2319,0.2319,0.2319,0.2319,0.2319,0.2257,0.2263,0.227,0.2285,0.2296,0.2305,0.2317,0.2322,0.2327,0.233,0.2336,0.2336,0.2336,0.2333,0.2333,0.2333,0.2333,0.2333,0.2333,0.2263,0.227,0.228,0.2293,0.23,0.231,0.2321,0.2328,0.2337,0.2339,0.2339,0.2342,0.2329,0.2326,0.2333,0.2333,0.2333,0.2333,0.2333,0.2279,0.2276,0.2291,0.2298,0.2313,0.2323,0.2329,0.2343,0.2349,0.2354,0.2355,0.2346,0.2347,0.2346,0.2343,0.2355,0.2355,0.2355,0.2355,0.2286,0.2287,0.2303,0.2313,0.2324,0.2331,0.2346,0.2355,0.2363,0.2367,0.2366,0.2363,0.2362,0.2364,0.2362,0.236,0.2375,0.2375,0.2375,0.2296,0.2298,0.2311,0.2319,0.2331,0.234,0.2354,0.2366,0.2374,0.2376,0.237,0.2369,0.2364,0.2362,0.2364,0.2362,0.2358,0,0]},{"header":{"parameterUnit":"m.s-1","parameterCategory":1,"la1":30.2992,"la2":30.254,"lo1":-89.0895,"lo2":-89.0443,"dy":0.0025,"dx":0.0025,"nx":19,"ny":19,"refTime":"2026-03-26T09:00:00:Z","depth":0,"parameterNumber":3,"parameterNumberName":"V-component_of_WINDS"},"data":[0,0,0,3.3924,3.3925,3.3975,3.3975,3.4047,3.4048,0,0,0,0,0,0,0,0,0,0,0,3.3916,3.3916,3.3924,3.3925,3.3975,3.3975,3.4047,3.4048,0,0,0,0,0,0,0,0,0,0,0,3.3915,3.3916,3.3917,3.3926,3.3975,3.3975,3.4047,3.4006,0,0,0,0,0,0,0,0,0,0,3.3956,3.3955,3.3916,3.3917,3.3926,3.3975,3.3975,3.4004,3.4008,3.4028,0,3.4049,0,3.405,3.4053,3.4054,0,0,0,3.392,3.3951,3.3959,3.3917,3.3926,3.3975,3.3951,3.4006,3.4012,3.4035,3.405,3.4053,3.4051,3.4054,3.4054,3.4192,3.4192,0,0,3.3917,3.3928,3.3955,3.3963,3.3957,3.395,3.3953,3.4009,3.4026,3.4051,3.4054,3.4052,3.4054,3.4055,3.4191,3.4192,0,0,0,3.3913,3.3926,3.3932,3.396,3.3969,3.3951,3.3955,3.4024,3.4025,3.4055,3.4053,3.4055,3.4056,3.419,3.4191,3.4247,0,0,0,3.3911,3.3924,3.3931,3.3938,3.3968,3.3997,3.3968,3.4021,3.4027,3.4053,3.4055,3.4057,3.4189,3.419,3.4243,3.4271,0,0,0,3.391,3.3923,3.3933,3.3939,3.3961,3.3996,3.4,3.4022,3.4027,3.4054,3.4057,3.4188,3.419,3.424,3.4266,3.4311,0,0,0,3.3912,3.3981,3.3934,3.401,3.396,3.403,3.4,3.4051,3.4081,3.4055,3.4189,3.4191,3.4239,3.4262,3.4308,3.4352,3.4372,0,0,3.4004,3.3992,3.4036,3.3996,3.4077,3.4022,3.4111,3.4127,3.4119,3.4167,3.417,3.4244,3.4265,3.4311,3.4475,3.449,0,0,0,3.4069,3.41,3.4119,3.4149,3.4165,3.418,3.4182,3.4188,3.4229,3.4147,3.4272,3.4284,3.431,3.4331,3.4344,3.4366,3.4201,3.42,3.42,3.4215,3.4202,3.4274,3.4267,3.4296,3.4298,3.432,3.4328,3.4305,3.4335,3.435,3.4451,3.4476,3.4486,3.4509,3.4371,3.4372,3.4372,3.4372,3.435,3.4393,3.4362,3.4421,3.4407,3.4455,3.4459,3.4441,3.4483,3.4439,3.4461,3.4414,3.4503,3.4522,3.4376,3.4375,3.4375,3.4374,3.4374,3.4445,3.4464,3.4471,3.4513,3.4546,3.4536,3.4579,3.4563,3.4548,3.457,3.4585,3.4584,3.4581,3.4578,3.4579,3.4579,3.4579,3.4579,3.458,3.4542,3.4548,3.4586,3.4609,3.4626,3.4646,3.4648,3.4664,3.4678,3.4663,3.4663,3.4638,3.4514,3.4484,3.4585,3.4584,3.4583,3.4583,3.4583,3.4685,3.465,3.471,3.4728,3.4752,3.4787,3.4766,3.48,3.4811,3.4833,3.4802,3.4713,3.4699,3.4688,3.4663,3.4805,3.4805,3.4805,3.4805,3.4766,3.4758,3.4816,3.4845,3.4871,3.4859,3.4926,3.4928,3.4924,3.493,3.4907,3.4872,3.4861,3.4853,3.4839,3.4815,3.4993,3.4993,3.4993,3.4854,3.4847,3.4909,3.4906,3.4924,3.4939,3.5002,3.5035,3.5023,3.5,3.4934,3.4926,3.4869,3.4851,3.4828,3.4806,3.4763,0,0]}]]